timestamp,wind_dir_avg,wind_spd_avg,wind_spd_max_dir,wind_spd_gust,battery_voltage,lat,long
2021-09-03 00:04:00+00:00,140.0,3.44,140.0,3.91,12.65,47.59359,-54.27349
2021-09-03 00:14:01+00:00,135.0,2.39,140.0,2.73,12.65,47.59359,-54.27349
2021-09-03 00:24:01+00:00,124.0,3.23,126.0,3.65,12.65,47.59359,-54.27349
2021-09-03 00:34:01+00:00,120.0,2.97,124.0,3.92,12.65,47.59359,-54.27349
2021-09-03 00:44:01+00:00,95.0,3.37,78.0,5.8,12.65,47.59359,-54.27349
2021-09-03 00:54:01+00:00,90.0,3.8,70.0,6.15,12.65,47.59359,-54.27349
2021-09-03 01:04:01+00:00,74.0,2.93,63.0,4.42,12.65,47.59359,-54.27349
2021-09-03 01:14:01+00:00,69.0,4.14,73.0,4.8,12.65,47.59359,-54.27349
2021-09-03 01:24:01+00:00,69.0,3.01,73.0,3.59,12.65,47.59359,-54.27349
2021-09-03 01:34:01+00:00,56.0,2.42,55.0,2.81,12.65,47.59359,-54.27349
2021-09-03 01:44:01+00:00,56.0,3.2,61.0,3.5,12.65,47.59359,-54.27349
2021-09-03 01:54:01+00:00,63.0,4.44,62.0,4.92,12.65,47.59359,-54.27349
2021-09-03 02:04:01+00:00,65.0,4.74,67.0,5.71,12.65,47.59359,-54.27349
2021-09-03 02:14:00+00:00,69.0,5.03,69.0,5.88,12.65,47.59359,-54.27349
2021-09-03 02:24:00+00:00,78.0,2.64,83.0,3.62,12.65,47.59359,-54.27349
2021-09-03 02:34:00+00:00,70.0,2.94,71.0,4.04,12.65,47.59359,-54.27349
2021-09-03 02:44:00+00:00,70.0,2.15,62.0,3.32,12.65,47.59359,-54.27349
2021-09-03 02:54:00+00:00,79.0,1.68,77.0,2.84,12.65,47.59359,-54.27349
2021-09-03 03:04:00+00:00,63.0,1.1,76.0,1.59,12.65,47.59359,-54.27349
2021-09-03 03:14:01+00:00,94.0,1.77,107.0,2.66,12.65,47.59359,-54.27349
2021-09-03 03:24:01+00:00,104.0,1.27,100.0,2.13,12.65,47.59359,-54.27349
2021-09-03 03:34:01+00:00,135.0,2.03,127.0,2.41,12.65,47.59359,-54.27349
2021-09-03 03:44:01+00:00,163.0,2.84,165.0,3.17,12.65,47.59359,-54.27349
2021-09-03 03:54:01+00:00,173.0,2.57,174.0,2.94,12.65,47.59359,-54.27349
2021-09-03 04:04:01+00:00,138.0,2.7,138.0,3.12,12.65,47.59359,-54.27349
2021-09-03 04:14:01+00:00,146.0,3.62,150.0,3.82,12.57,47.59359,-54.27349
2021-09-03 04:24:01+00:00,142.0,3.35,142.0,3.51,12.57,47.59359,-54.27349
2021-09-03 04:34:01+00:00,118.0,2.29,138.0,3.01,12.57,47.59359,-54.27349
2021-09-03 04:44:01+00:00,121.0,1.99,124.0,2.23,12.57,47.59359,-54.27349
2021-09-03 04:54:01+00:00,84.0,2.91,85.0,5.43,12.57,47.59359,-54.27349
2021-09-03 05:04:01+00:00,100.0,2.25,89.0,3.53,12.57,47.59359,-54.27349
2021-09-03 05:14:01+00:00,123.0,2.86,127.0,3.1,12.57,47.59359,-54.27349
2021-09-03 05:24:01+00:00,111.0,2.46,121.0,3.66,12.57,47.59359,-54.27349
2021-09-03 05:34:01+00:00,116.0,2.44,126.0,4.61,12.57,47.59359,-54.27349
2021-09-03 05:44:01+00:00,120.0,2.66,125.0,3.52,12.57,47.59359,-54.27349
2021-09-03 05:54:01+00:00,113.0,1.97,137.0,2.92,12.57,47.59359,-54.27349
2021-09-03 06:04:01+00:00,126.0,5.48,122.0,6.41,12.57,47.59359,-54.27349
2021-09-03 06:14:01+00:00,129.0,5.12,130.0,6.02,12.57,47.59359,-54.27349
2021-09-03 06:24:01+00:00,148.0,8.44,144.0,10.26,12.57,47.59359,-54.27349
2021-09-03 06:34:01+00:00,137.0,6.51,127.0,8.04,12.57,47.59359,-54.27349
2021-09-03 06:44:01+00:00,146.0,5.05,144.0,5.81,12.57,47.59359,-54.27349
2021-09-03 06:54:01+00:00,135.0,6.2,132.0,7.33,12.57,47.59359,-54.27349
2021-09-03 07:04:01+00:00,135.0,5.69,131.0,7.41,12.57,47.59359,-54.27349
2021-09-03 07:14:00+00:00,141.0,5.76,147.0,6.71,12.57,47.59359,-54.27349
2021-09-03 07:24:00+00:00,133.0,5.89,136.0,6.62,12.57,47.59359,-54.27349
2021-09-03 07:34:00+00:00,121.0,6.03,121.0,7.79,12.57,47.59359,-54.27349
2021-09-03 07:44:00+00:00,123.0,6.36,120.0,7.69,12.57,47.59359,-54.27349
2021-09-03 07:54:00+00:00,137.0,5.62,141.0,7.62,12.57,47.59359,-54.27349
2021-09-03 08:04:00+00:00,146.0,6.97,146.0,8.26,12.57,47.59359,-54.27349
2021-09-03 08:14:00+00:00,153.0,4.87,146.0,6.6,12.49,47.59359,-54.27349
2021-09-03 08:24:00+00:00,189.0,4.5,192.0,6.49,12.49,47.59359,-54.27349
2021-09-03 08:34:00+00:00,235.0,3.64,245.0,6.26,12.49,47.59359,-54.27349
2021-09-03 08:44:00+00:00,202.0,3.69,199.0,5.06,12.49,47.59359,-54.27349
2021-09-03 08:54:00+00:00,150.0,3.6,135.0,5.06,12.49,47.59359,-54.27349
2021-09-03 09:04:00+00:00,256.0,3.21,280.0,4.97,12.49,47.59359,-54.27349
2021-09-03 09:14:01+00:00,274.0,1.83,271.0,3.3,12.41,47.59359,-54.27349
2021-09-03 09:24:01+00:00,262.0,1.63,264.0,2.19,12.41,47.59359,-54.27349
2021-09-03 09:34:01+00:00,203.0,4.15,199.0,4.92,12.41,47.59359,-54.27349
2021-09-03 09:44:01+00:00,246.0,3.88,240.0,4.43,12.41,47.59359,-54.27349
2021-09-03 09:54:01+00:00,249.0,3.86,246.0,4.61,12.41,47.59359,-54.27349
2021-09-03 10:04:01+00:00,249.0,4.04,256.0,4.93,12.41,47.59359,-54.27349
2021-09-03 10:14:01+00:00,212.0,7.93,208.0,9.39,12.41,47.59359,-54.27349
2021-09-03 10:24:01+00:00,262.0,4.74,264.0,5.28,12.41,47.59359,-54.27349
2021-09-03 10:34:01+00:00,242.0,5.06,239.0,5.9,12.41,47.59359,-54.27349
2021-09-03 10:44:01+00:00,236.0,4.62,236.0,5.93,12.41,47.59359,-54.27349
2021-09-03 10:54:01+00:00,214.0,6.9,216.0,8.44,12.41,47.59359,-54.27349
2021-09-03 11:04:01+00:00,207.0,8.95,205.0,10.07,12.41,47.59359,-54.27349
2021-09-03 11:14:01+00:00,205.0,8.77,204.0,9.99,12.49,47.59359,-54.27349
2021-09-03 11:24:01+00:00,195.0,8.6,202.0,10.05,12.49,47.59359,-54.27349
2021-09-03 11:34:01+00:00,193.0,8.21,202.0,9.84,12.49,47.59359,-54.27349
2021-09-03 11:44:01+00:00,203.0,11.28,201.0,12.73,12.49,47.59359,-54.27349
2021-09-03 11:54:01+00:00,201.0,11.29,198.0,13.18,12.49,47.59359,-54.27349
2021-09-03 12:04:01+00:00,202.0,10.65,200.0,12.41,12.49,47.59359,-54.27349
2021-09-03 12:14:01+00:00,206.0,12.06,213.0,14.26,13.29,47.59359,-54.27349
2021-09-03 12:24:01+00:00,206.0,12.3,199.0,14.53,13.29,47.59359,-54.27349
2021-09-03 12:34:01+00:00,210.0,9.83,209.0,10.98,13.29,47.59359,-54.27349
2021-09-03 12:44:01+00:00,219.0,9.88,222.0,11.12,13.29,47.59359,-54.27349
2021-09-03 12:54:01+00:00,210.0,9.08,206.0,10.88,13.29,47.59359,-54.27349
2021-09-03 13:04:01+00:00,210.0,10.24,205.0,11.83,13.29,47.59359,-54.27349
2021-09-03 13:14:01+00:00,213.0,11.39,214.0,13.21,13.21,47.59359,-54.27349
2021-09-03 13:24:01+00:00,225.0,9.53,229.0,11.61,13.21,47.59359,-54.27349
2021-09-03 13:34:01+00:00,219.0,12.01,216.0,13.65,13.21,47.59359,-54.27349
2021-09-03 13:44:01+00:00,238.0,7.85,243.0,10.8,13.21,47.59359,-54.27349
2021-09-03 13:54:01+00:00,233.0,7.71,232.0,9.18,13.21,47.59359,-54.27349
2021-09-03 14:04:01+00:00,228.0,8.91,232.0,10.28,13.21,47.59359,-54.27349
2021-09-03 14:14:01+00:00,217.0,12.1,213.0,14.45,13.21,47.59359,-54.27349
2021-09-03 14:24:01+00:00,214.0,11.17,213.0,13.17,13.21,47.59359,-54.27349
2021-09-03 14:34:01+00:00,218.0,11.44,215.0,13.27,13.21,47.59359,-54.27349
2021-09-03 14:44:01+00:00,218.0,12.73,217.0,14.62,13.21,47.59359,-54.27349
2021-09-03 14:54:01+00:00,232.0,9.46,234.0,11.65,13.21,47.59359,-54.27349
2021-09-03 15:04:01+00:00,238.0,8.71,238.0,9.43,13.21,47.59359,-54.27349
2021-09-03 15:14:01+00:00,232.0,8.78,239.0,10.29,13.13,47.59359,-54.27349
2021-09-03 15:24:01+00:00,229.0,11.34,230.0,14.17,13.13,47.59359,-54.27349
2021-09-03 15:34:01+00:00,225.0,10.62,230.0,12.31,13.13,47.59359,-54.27349
2021-09-03 15:44:01+00:00,223.0,10.25,222.0,11.64,13.13,47.59359,-54.27349
2021-09-03 15:54:01+00:00,226.0,10.2,230.0,11.56,13.13,47.59359,-54.27349
2021-09-03 16:04:01+00:00,230.0,9.81,232.0,11.86,13.13,47.59359,-54.27349
2021-09-03 16:14:01+00:00,228.0,9.57,226.0,10.73,13.21,47.59359,-54.27349
2021-09-03 16:24:01+00:00,223.0,9.11,223.0,10.23,13.21,47.59359,-54.27349
2021-09-03 16:34:01+00:00,217.0,9.04,217.0,10.11,13.21,47.59359,-54.27349
2021-09-03 16:44:01+00:00,218.0,9.19,220.0,10.84,13.21,47.59359,-54.27349
2021-09-03 16:54:01+00:00,209.0,9.2,208.0,10.24,13.21,47.59359,-54.27349
2021-09-03 17:04:01+00:00,211.0,9.84,209.0,11.11,13.21,47.59359,-54.27349
2021-09-03 17:14:01+00:00,210.0,8.91,206.0,10.49,13.29,47.59359,-54.27349
2021-09-03 17:24:01+00:00,206.0,7.5,213.0,9.0,13.29,47.59359,-54.27349
2021-09-03 17:34:01+00:00,212.0,8.02,211.0,9.61,13.29,47.59359,-54.27349
2021-09-03 17:44:01+00:00,210.0,7.95,210.0,9.15,13.29,47.59359,-54.27349
2021-09-03 17:54:01+00:00,208.0,8.35,212.0,9.49,13.29,47.59359,-54.27349
2021-09-03 18:04:01+00:00,215.0,7.61,217.0,9.04,13.29,47.59359,-54.27349
2021-09-03 18:14:01+00:00,215.0,7.74,216.0,8.73,13.53,47.59359,-54.27349
2021-09-03 18:24:01+00:00,210.0,8.63,214.0,9.73,13.53,47.59359,-54.27349
2021-09-03 18:34:01+00:00,211.0,8.31,212.0,9.15,13.53,47.59359,-54.27349
2021-09-03 18:44:01+00:00,209.0,7.87,207.0,8.71,13.53,47.59359,-54.27349
2021-09-03 18:54:01+00:00,204.0,7.57,205.0,8.5,13.53,47.59359,-54.27349
2021-09-03 19:04:01+00:00,209.0,6.92,215.0,7.76,13.53,47.59359,-54.27349
2021-09-03 19:14:01+00:00,206.0,6.28,211.0,7.17,13.6,47.59359,-54.27349
2021-09-03 19:24:01+00:00,211.0,6.5,205.0,7.19,13.6,47.59359,-54.27349
2021-09-03 19:34:01+00:00,213.0,6.5,209.0,7.62,13.6,47.59359,-54.27349
2021-09-03 19:44:01+00:00,212.0,7.43,213.0,8.68,13.6,47.59359,-54.27349
2021-09-03 19:54:01+00:00,212.0,8.4,215.0,9.37,13.6,47.59359,-54.27349
2021-09-03 20:04:01+00:00,215.0,6.81,210.0,7.94,13.6,47.59359,-54.27349
2021-09-03 20:14:01+00:00,209.0,6.83,199.0,8.54,13.6,47.59359,-54.27349
2021-09-03 20:24:01+00:00,212.0,6.11,217.0,7.13,13.6,47.59359,-54.27349
2021-09-03 20:34:01+00:00,212.0,6.69,213.0,7.39,13.6,47.59359,-54.27349
2021-09-03 20:44:01+00:00,212.0,7.57,211.0,8.78,13.6,47.59359,-54.27349
2021-09-03 20:54:01+00:00,217.0,7.23,215.0,7.96,13.6,47.59359,-54.27349
2021-09-03 21:04:01+00:00,216.0,8.5,222.0,9.29,13.6,47.59359,-54.27349
2021-09-03 21:14:01+00:00,217.0,6.45,216.0,7.49,13.29,47.59359,-54.27349
2021-09-03 21:24:01+00:00,218.0,7.53,219.0,9.39,13.29,47.59359,-54.27349
2021-09-03 21:34:01+00:00,214.0,8.12,218.0,9.18,13.29,47.59359,-54.27349
2021-09-03 21:44:01+00:00,205.0,6.62,207.0,7.52,13.29,47.59359,-54.27349
2021-09-03 21:54:01+00:00,211.0,7.08,213.0,8.44,13.29,47.59359,-54.27349
2021-09-03 22:04:01+00:00,209.0,6.94,211.0,7.98,13.29,47.59359,-54.27349
2021-09-03 22:14:01+00:00,205.0,7.05,202.0,7.97,13.05,47.59359,-54.27349
2021-09-03 22:24:01+00:00,203.0,6.16,199.0,7.09,13.05,47.59359,-54.27349
2021-09-03 22:34:01+00:00,202.0,6.25,200.0,7.38,13.05,47.59359,-54.27349
2021-09-03 22:44:01+00:00,204.0,5.35,204.0,6.1,13.05,47.59359,-54.27349
2021-09-03 22:54:01+00:00,206.0,5.04,204.0,5.46,13.05,47.59359,-54.27349
2021-09-03 23:04:01+00:00,199.0,5.23,199.0,5.77,13.05,47.59359,-54.27349
2021-09-03 23:14:00+00:00,205.0,5.97,203.0,6.52,12.65,47.59359,-54.27349
2021-09-03 23:24:00+00:00,205.0,5.29,207.0,6.3,12.65,47.59359,-54.27349
2021-09-03 23:34:00+00:00,205.0,5.51,213.0,6.36,12.65,47.59359,-54.27349
2021-09-03 23:44:00+00:00,212.0,5.33,213.0,5.86,12.65,47.59359,-54.27349
2021-09-03 23:54:00+00:00,208.0,5.86,204.0,6.59,12.65,47.59359,-54.27349
